Chapel Hill, NC

11:52 PM EDT on May 24, 2017 (GMT -0400)
Williams

Weather History for KIGX - August, 2013

Change the Weather History Date:

Wednesday, August 7, 2013

  Actual Average Record
Temperature  
Mean Temperature 77 °F -  
Max Temperature 86 °F 87 °F 99 °F (2007)
Min Temperature 70 °F 65 °F 49 °F (1957)
Cooling Degree Days 12    
Growing Degree Days 27 (Base 50)    
Moisture  
Dew Point 67 °F    
Average Humidity 74    
Maximum Humidity 90    
Minimum Humidity 55    
Precipitation  
Precipitation 0.00 in - - ()
Sea Level Pressure  
Sea Level Pressure 30.07 in    
Wind  
Wind Speed 2 mph (North)    
Max Wind Speed 8 mph    
Max Gust Speed -    
Visibility 10 miles    
Events      
Averages and records for this station are not official NWS values.
T = Trace of Precipitation, MM = Missing Value Source: NWS Daily Summary

Daily Weather History Graph

Daily Weather History Graph

Search for Another Location

Airport or City:

Trip Planner

Search our weather history database for the weather conditions in past years. The results will help you decide how hot, cold, wet, or windy it might be!

Date:

Astronomy

Aug. 07, 2013 Rise Set
Actual Time 6:28 AM EDT 8:14 PM EDT
Civil Twilight 6:00 AM EDT 8:42 PM EDT
Nautical Twilight 5:27 AM EDT 9:15 PM EDT
Astronomical Twilight 4:51 AM EDT 9:51 PM EDT
Moon 7:12 AM EDT (8/7) 8:25 PM EDT (8/7)
Length of Visible Light 14h 41m
Length of Day
13h 46m
New Moon, 1% of the Moon is Illuminated
Aug 7
New Moon
Aug 14
First Quarter
Aug 20
Full
Aug 28
Last Quarter
Sep 5
New

Hourly Weather History & Observations

Time (EDT) Temp. Heat Index Dew Point Humidity Pressure Visibility Wind Dir Wind Speed Gust Speed Precip Events Conditions
12:56 AM 70.0 °F - 66.0 °F 87% 30.07 in 9.0 mi West 3.5 mph - N/A   Overcast
1:56 AM 70.0 °F - 66.9 °F 90% 30.06 in 10.0 mi Calm Calm - N/A   Overcast
2:56 AM 71.1 °F - 66.9 °F 87% 30.06 in 9.0 mi Calm Calm - N/A   Overcast
3:56 AM 71.1 °F - 66.9 °F 87% 30.07 in 9.0 mi Calm Calm - N/A   Overcast
4:56 AM 71.1 °F - 66.0 °F 84% 30.06 in 10.0 mi Calm Calm - N/A   Overcast
5:56 AM 72.0 °F - 66.0 °F 81% 30.07 in 10.0 mi Calm Calm - N/A   Overcast
6:56 AM 71.1 °F - 66.9 °F 87% 30.09 in 10.0 mi Calm Calm - N/A   Overcast
7:56 AM 72.0 °F - 66.9 °F 84% 30.09 in - Calm Calm - N/A   Unknown
8:56 AM 73.9 °F - 66.9 °F 79% 30.11 in 10.0 mi Variable 5.8 mph - N/A   Overcast
9:56 AM 75.0 °F - 66.9 °F 76% 30.11 in 10.0 mi SSE 5.8 mph - N/A   Overcast
10:56 AM 79.0 °F - 68.0 °F 69% 30.10 in 10.0 mi Variable 4.6 mph - N/A   Mostly Cloudy
11:56 AM 81.0 °F 83.3 °F 66.9 °F 62% 30.10 in 10.0 mi Variable 5.8 mph - N/A   Partly Cloudy
12:56 PM 82.9 °F 85.4 °F 66.9 °F 58% 30.10 in 10.0 mi Variable 4.6 mph - N/A   Mostly Cloudy
1:56 PM 82.9 °F 85.4 °F 66.9 °F 58% 30.08 in 10.0 mi Variable 3.5 mph - N/A   Clear
2:56 PM 84.0 °F 86.3 °F 66.0 °F 55% 30.06 in 10.0 mi SE 8.1 mph - N/A   Partly Cloudy
3:56 PM 82.9 °F 85.0 °F 66.0 °F 56% 30.06 in 10.0 mi Variable 5.8 mph - N/A   Clear
4:56 PM 84.0 °F 86.5 °F 66.9 °F 56% 30.04 in 10.0 mi North - - N/A   Clear
5:56 PM 84.0 °F 86.5 °F 66.9 °F 56% 30.04 in 10.0 mi Variable 3.5 mph - N/A   Clear
6:56 PM 79.0 °F - 69.1 °F 72% 30.04 in 10.0 mi Calm Calm - N/A   Clear
7:56 PM 77.0 °F - 71.1 °F 82% 30.04 in 10.0 mi Calm Calm - N/A   Clear
8:56 PM 75.0 °F - 71.1 °F 87% 30.05 in 10.0 mi Calm Calm - N/A   Clear
9:56 PM 73.9 °F - 70.0 °F 87% 30.06 in 10.0 mi Calm Calm - N/A   Clear
10:56 PM 78.1 °F - 68.0 °F 71% 30.06 in 10.0 mi Variable 3.5 mph - N/A   Clear
11:56 PM 77.0 °F - 68.0 °F 74% 30.06 in 10.0 mi Calm Calm - N/A   Clear